Location: Newark
(21.1700°N, 79.6500°E)
Time: 11:54:14
(UTC+00:00)

N. Korean satellite - Pass Details

Date: 13 December 2019
Orbit: 454 x 507 km, 97.2° (Epoch: 28 January)

Event Time Altitude Azimuth Distance (km) Brightness Sun altitude
Rises 00:40:34 0° 360° (N) 2,495 9.9 -7.0°
Reaches altitude 10° 00:42:43 10° 352° (N) 1,610 8.9 -6.5°
Maximum altitude 00:45:55 37° 283° (WNW) 725 7.0 -5.8°
Drops below altitude 10° 00:49:06 10° 214° (SW) 1,588 9.1 -5.2°
Sets 00:51:12 0° 206° (SSW) 2,455 10.1 -4.7°
